Tracking 22124 objects as of 25-Jan-2021
HD Live streaming from Space Station
objects crossing your sky now

OPS 2222

Track OPS 2222 now!
OPS 2222 is classified as:


NORAD ID: 3334
Int'l Code: 1968-063A
Perigee: 32,019.5 km
Apogee: 40,146.8 km
Inclination: 10.9 °
Period: 1,450.9 minutes
Semi major axis: 42454 km
RCS: Unknown
Launch date: August 6, 1968
Source: United States (US)
Launch site: AIR FORCE EASTERN TEST RANGE (AFETR)
aabbcc
Your satellite tracking list
Your tracking list is empty




NASA's NSSDC Master Catalog

Two Line Element Set (TLE):
1 03334U 68063A   21024.35451352 -.00000140  00000-0  00000-0 0  9999
2 03334  10.8834 306.4192 0957184 175.4608  46.5796  0.99248061  6573
Source of the keplerian elements: McCants